Observer details:
033 Karl Schwarzschild Observatory, Tautenburg.  Observers C. Hoegner,
    B. Stecklum.  Measurer B. Stecklum.  1.34-m f/3 Schmidt + CCD.
106 Crni Vrh.  Observer S. Maticic.  0.6-m f/3.3 Deltagraph + CCD.
204 Schiaparelli Observatory.  Observer L. Buzzi.  0.60-m f/4.64 reflector +
    CCD.
568 Mauna Kea.  Observers R. Wainscoat, C. Crowder, T. Burdullis.  Measurers
    R. Weryk, R. Wainscoat.  3.6-m Canada-France-Hawaii Telescope + CCD.
850 Cordell-Lorenz Observatory, Sewanee.  Observers D. T. Durig,
    T. R. Potter.  0.3-m f/7.6 Schmidt-Cassegrain + 1536x1024 CCD.
C77 Bernezzo Observatory.  Observer A. Mantero.  0.25-m f/1000.0 reflector +
    CCD.
C95 SATINO Remote Observatory, Haute Provence.  Observer J. Jahn.  0.60-m
    f/3.2 Newtonian reflector + CCD.
G40 Slooh.com Canary Islands Observatory.  Observer B. Lutkenhoner.  0.43-m
    f/6.8 Corrected Dall-Kirkham + CCD.
H06 iTelescope Observatory, Mayhill.  Observer H. Sato.  0.43-m f/6.8
    astrograph + CCD + f/4.5 focal reducer.
I52 Steward Observatory, Mt. Lemmon Station.  Observers G. J. Leonard,
    H. Groeller.  Measurers B. M. Africano, E. J. Christensen, G. A. Farneth,
    D. C. Fuls, A. R. Gibbs, A. D. Grauer, H. Groeller, R. A. Kowalski,
    S. M. Larson, G. J. Leonard, R. L. Seaman, F. C. Shelly.  1.0-m reflector
    + CCD.
K38 M57 Observatory, Saltrio.  Observer G. Baj.  0.3-m f/5.5 Ritchey-Chretien
    + CCD.
K51 Osservatorio del Celado, Castello Tesino.  Observers G. Favero,
    R. Furgoni.  Measurer R. Furgoni.  0.80-m f/4 reflector + CCD.
K88 GINOP-KHK, Piszkesteto.  Observer K. Sarneczky.  0.60-m Schmidt + CCD.
L01 Visnjan Observatory, Tican.  Observer K. Korlevic.  1.0-m f/2.9 reflector
    + CCD.
L04 ROASTERR-1 Observatory, Cluj-Napoca.  Observer L. Hudin.  0.3-m f/5
    reflector + CCD.
L27 29PREMOTE Observatory, Dauban.  Observer J.-F. Soulier.  0.20-m f/4
    Newtonian reflector + CCD.
Q11 Shinshiro.  Observer T. Ikemura.  Measurer H. Sato.  0.35-m f/5 reflector
    + CCD.
T05 ATLAS-HKO, Haleakala.  Observers L. Denneau, H. Flewelling, A. Heinze,
    H. Weiland, J. Tonry.  Measurers L. Denneau, H. Flewelling, A. Heinze,
    J. Tonry, A. Fitzsimmons, D. Young, N. Erasmus.  0.5-m f/2.0 Schmidt +
    CCD.
Z80 Northolt Branch Observatory.  Observer G. Wells.  Measurer D. Bamberger.
    0.25-m f/8.0 Ritchey-Chretien + CCD.
Z99 Clixby Observatory, Cleethorpes.  Observer A. Mickleburgh.  0.36-m f/8
    Schmidt-Cassegrain + CCD.
 
Orbital elements:
    C/2018 X2 (Fitzsimmons)
Epoch 2019 July 16.0 TT = JDT 2458680.5
T 2019 July 8.84439 TT                                  MPCW
q   2.1267778            (2000.0)            P               Q
z  +0.0067370      Peri.  162.07175     -0.80580428     -0.57804231
 +/-0.0037777      Node   340.84126     +0.48392693     -0.51757703
e   0.9856719      Incl.   23.07602     +0.34131247     -0.63085743
>From 83 observations 2018 Dec. 8-15, mean residual 0".5.

    C/2018 X2 (Fitzsimmons)
Epoch 2019 Apr. 27.0 TT = JDT 2458600.5
T 2019 July 8.84426 TT                                  MPCW
q   2.1267740            (2000.0)            P               Q
z  +0.0067053      Peri.  162.07115     -0.80580684     -0.57804062
 +/-0.0037777      Node   340.84215     +0.48392288     -0.51758628
e   0.9857393      Incl.   23.07550     +0.34131215     -0.63085139
>From 83 observations 2018 Dec. 8-15, mean residual 0".5.

Ephemeris:
    C/2018 X2 (Fitzsimmons)
Date    TT    R. A. (2000) Decl.     Delta      r     Elong.  Phase   m1    m2
2018 11 15    04 27 23.3 +53 32 08   2.5400  3.3785   142.4    10.3  19.3
...
2018 11 30    04 12 33.8 +54 07 58   2.3853  3.2595   147.4     9.4  19.0
...
2018 12 08    04 03 48.5 +54 03 50   2.3252  3.1968   147.0     9.7  18.9
...
2018 12 14    03 57 26.9 +53 49 37   2.2905  3.1502   145.3    10.2  18.8
2018 12 15    03 56 26.0 +53 46 21   2.2856  3.1424   144.9    10.4  18.8
2018 12 16    03 55 26.1 +53 42 50   2.2809  3.1347   144.5    10.5  18.8
...
2018 12 22    03 49 52.1 +53 16 54   2.2576  3.0886   141.5    11.4  18.7
...
2018 12 30    03 43 54.1 +52 30 54   2.2390  3.0277   136.4    13.0  18.6
...
2019 01 14    03 38 36.7 +50 40 43   2.2381  2.9158   125.0    16.0  18.4

Gareth V. Williams           (C) Copyright 2018 MPC           M.P.E.C. 2018-X135



More information about the Iaude mailing list